CSZ9853 ZGSZ-ZSNJ

Flight info

Callsign CSZ9853
Flight time 1h 43m
Altitude 31100
Route M078S0950 IDUMA W41 OMDUP G471 PLT A599 TUPGA W135 ADBAS/M078S0920 W135 GOSRO
Aircraft B738/M-SDE2E3FGHIRWZ/LB1

Departure

Time 2026-04-29 13:41
Airport Shenzhen Bao'an International Airport (ZGSZ)

Arrival

Time 2026-04-29 15:24
Airport Nanjing Lukou International Airport (ZSNJ)
Time Latitude Longitude Altitude Speed Heading
2026-04-29 13:17 22.64546 113.80002 14 ft 0 kts 74°
2026-04-29 13:21 22.64546 113.80001 14 ft 0 kts 74°
2026-04-29 13:30 22.64545 113.79995 14 ft 2 kts 76°
2026-04-29 13:30 22.64541 113.79978 14 ft 2 kts 81°
2026-04-29 13:30 22.64540 113.79960 14 ft 2 kts 93°
2026-04-29 13:31 22.64542 113.79943 14 ft 2 kts 92°
2026-04-29 13:31 22.64542 113.79925 14 ft 2 kts 81°
2026-04-29 13:31 22.64537 113.79908 15 ft 2 kts 47°
2026-04-29 13:31 22.64525 113.79897 17 ft 1 kts 38°
2026-04-29 13:32 22.64524 113.79896 17 ft 0 kts 38°
2026-04-29 13:33 22.64528 113.79900 18 ft 2 kts 38°
2026-04-29 13:33 22.64543 113.79910 15 ft 3 kts 27°
2026-04-29 13:34 22.64563 113.79914 14 ft 5 kts
2026-04-29 13:34 22.64613 113.79915 14 ft 9 kts 352°
2026-04-29 13:34 22.64669 113.79891 14 ft 9 kts
2026-04-29 13:34 22.64706 113.79948 14 ft 11 kts 62°
2026-04-29 13:35 22.64750 113.80037 14 ft 15 kts 62°
2026-04-29 13:35 22.64812 113.80166 14 ft 14 kts 64°
2026-04-29 13:35 22.64829 113.80233 14 ft 14 kts 95°
2026-04-29 13:35 22.64835 113.80331 14 ft 13 kts 107°
2026-04-29 13:36 22.64763 113.80386 14 ft 13 kts 153°
2026-04-29 13:36 22.64681 113.80430 14 ft 14 kts 153°
2026-04-29 13:36 22.64584 113.80485 14 ft 17 kts 152°
2026-04-29 13:36 22.64469 113.80548 14 ft 20 kts 154°
2026-04-29 13:37 22.64336 113.80621 14 ft 23 kts 153°
2026-04-29 13:37 22.64179 113.80708 14 ft 27 kts 153°
2026-04-29 13:37 22.64003 113.80805 14 ft 29 kts 153°
2026-04-29 13:37 22.63821 113.80905 14 ft 30 kts 153°
2026-04-29 13:38 22.63634 113.81009 14 ft 30 kts 152°
2026-04-29 13:38 22.63442 113.81114 14 ft 31 kts 153°
2026-04-29 13:38 22.63249 113.81220 14 ft 31 kts 153°
2026-04-29 13:38 22.63052 113.81326 14 ft 32 kts 153°
2026-04-29 13:39 22.62855 113.81435 14 ft 32 kts 154°
2026-04-29 13:39 22.62655 113.81544 14 ft 32 kts 152°
2026-04-29 13:39 22.62609 113.81626 14 ft 12 kts 64°
2026-04-29 13:39 22.62649 113.81711 14 ft 13 kts 63°
2026-04-29 13:40 22.62727 113.81721 14 ft 14 kts 334°
2026-04-29 13:40 22.62905 113.81624 14 ft 58 kts 333°
2026-04-29 13:40 22.63467 113.81316 14 ft 121 kts 333°
2026-04-29 13:40 22.64383 113.80814 48 ft 169 kts 337°
2026-04-29 13:41 22.65452 113.80240 647 ft 174 kts 336°
2026-04-29 13:41 22.66502 113.79682 1488 ft 162 kts 340°
2026-04-29 13:41 22.67488 113.79155 2144 ft 159 kts 339°
2026-04-29 13:41 22.68506 113.78597 2439 ft 165 kts 339°
2026-04-29 13:42 22.69530 113.78032 2844 ft 167 kts 337°
2026-04-29 13:42 22.70593 113.77450 3207 ft 178 kts 337°
2026-04-29 13:42 22.71798 113.76844 3391 ft 201 kts 346°
2026-04-29 13:42 22.73245 113.76795 3518 ft 218 kts
2026-04-29 13:43 22.74795 113.77132 3736 ft 239 kts 15°
2026-04-29 13:43 22.76186 113.78140 4223 ft 248 kts 47°
2026-04-29 13:43 22.77280 113.79604 4708 ft 260 kts 48°
2026-04-29 13:43 22.78456 113.81131 5265 ft 263 kts 48°
2026-04-29 13:44 22.79653 113.82652 5852 ft 270 kts 47°
2026-04-29 13:44 22.80894 113.84211 6485 ft 275 kts 47°
2026-04-29 13:44 22.82157 113.85792 7170 ft 283 kts 47°
2026-04-29 13:44 22.83488 113.87462 7788 ft 296 kts 47°
2026-04-29 13:45 22.84840 113.89156 8502 ft 304 kts 47°
2026-04-29 13:45 22.86233 113.90899 9337 ft 308 kts 47°
2026-04-29 13:45 22.87647 113.92667 10113 ft 313 kts 47°
2026-04-29 13:45 22.89166 113.94431 10491 ft 330 kts 36°
2026-04-29 13:46 22.91272 113.95520 10649 ft 345 kts
2026-04-29 13:46 22.93695 113.95990 11004 ft 359 kts
2026-04-29 13:46 22.96188 113.96396 11609 ft 365 kts
2026-04-29 13:46 22.98715 113.96800 12336 ft 367 kts
2026-04-29 13:47 23.01250 113.97213 13016 ft 370 kts
2026-04-29 13:47 23.03812 113.97642 13653 ft 375 kts
2026-04-29 13:47 23.06376 113.98079 14215 ft 379 kts
2026-04-29 13:47 23.08990 113.98530 14777 ft 382 kts
2026-04-29 13:48 23.11634 113.98991 15352 ft 385 kts
2026-04-29 13:48 23.14297 113.99456 15911 ft 389 kts
2026-04-29 13:48 23.16985 113.99926 16431 ft 393 kts
2026-04-29 13:48 23.19703 114.00401 16953 ft 396 kts
2026-04-29 13:49 23.22439 114.00879 17477 ft 400 kts
2026-04-29 13:49 23.25200 114.01361 18006 ft 403 kts
2026-04-29 13:49 23.27992 114.01845 18498 ft 406 kts
2026-04-29 13:49 23.30763 114.02069 18962 ft 403 kts 354°
2026-04-29 13:50 23.33577 114.01944 19415 ft 404 kts 352°
2026-04-29 13:50 23.36396 114.01761 19860 ft 407 kts 352°
2026-04-29 13:50 23.39238 114.01588 20287 ft 410 kts 352°
2026-04-29 13:50 23.42100 114.01444 20715 ft 413 kts 353°
2026-04-29 13:51 23.44998 114.01315 21154 ft 416 kts 353°
2026-04-29 13:51 23.47882 114.01405 21558 ft 425 kts
2026-04-29 13:51 23.50771 114.02285 21968 ft 436 kts 19°
2026-04-29 13:51 23.53435 114.03951 22404 ft 445 kts 33°
2026-04-29 13:52 23.55901 114.06018 22852 ft 448 kts 35°
2026-04-29 13:52 23.58328 114.08126 23197 ft 451 kts 35°
2026-04-29 13:52 23.60794 114.10270 23555 ft 454 kts 35°
2026-04-29 13:52 23.63285 114.12413 23889 ft 456 kts 34°
2026-04-29 13:53 23.65761 114.14521 24239 ft 457 kts 34°
2026-04-29 13:53 23.68299 114.16664 24487 ft 461 kts 34°
2026-04-29 13:53 23.70853 114.18814 24769 ft 464 kts 34°
2026-04-29 13:53 23.73393 114.20951 25061 ft 466 kts 34°
2026-04-29 13:54 23.75985 114.23133 25365 ft 468 kts 34°
2026-04-29 13:54 23.78577 114.25317 25638 ft 470 kts 34°
2026-04-29 13:54 23.81141 114.27479 25898 ft 473 kts 34°
2026-04-29 13:54 23.83771 114.29683 26173 ft 474 kts 33°
2026-04-29 13:55 23.86484 114.31721 26442 ft 475 kts 31°
2026-04-29 13:55 23.89167 114.33882 26685 ft 480 kts 33°
2026-04-29 13:55 23.91794 114.36087 26962 ft 483 kts 33°
2026-04-29 13:55 23.94472 114.38340 27108 ft 488 kts 33°
2026-04-29 13:56 23.97181 114.40598 27385 ft 489 kts 33°
2026-04-29 13:56 23.99917 114.42855 27680 ft 489 kts 33°
2026-04-29 13:56 24.02611 114.45071 27938 ft 491 kts 33°
2026-04-29 13:56 24.05354 114.47321 28170 ft 494 kts 32°
2026-04-29 13:57 24.08116 114.49587 28413 ft 496 kts 33°
2026-04-29 13:57 24.10883 114.51857 28648 ft 498 kts 33°
2026-04-29 13:57 24.13661 114.54139 28922 ft 499 kts 33°
2026-04-29 13:57 24.16410 114.56397 29269 ft 498 kts 33°
2026-04-29 13:58 24.19189 114.58684 29589 ft 499 kts 32°
2026-04-29 13:58 24.21985 114.60984 29833 ft 502 kts 32°
2026-04-29 13:58 24.24751 114.63263 30191 ft 501 kts 32°
2026-04-29 13:58 24.27538 114.65560 30545 ft 499 kts 32°
2026-04-29 13:59 24.30312 114.67847 30853 ft 498 kts 32°
2026-04-29 13:59 24.33083 114.70130 31163 ft 497 kts 32°
2026-04-29 13:59 24.38617 114.74697 31221 ft 500 kts 32°
2026-04-29 14:00 24.44153 114.79276 31231 ft 498 kts 32°
2026-04-29 14:00 24.49519 114.83715 31234 ft 500 kts 32°
2026-04-29 14:01 24.55176 114.88401 31229 ft 502 kts 32°
2026-04-29 14:01 24.60953 114.92537 31231 ft 494 kts 19°
2026-04-29 14:02 24.67391 114.94803 31269 ft 481 kts
2026-04-29 14:02 24.73973 114.96287 31248 ft 483 kts
2026-04-29 14:03 24.80545 114.97901 31245 ft 484 kts
2026-04-29 14:03 24.87115 114.99504 31247 ft 484 kts
2026-04-29 14:04 24.93655 115.01095 31258 ft 483 kts
2026-04-29 14:04 25.00223 115.02696 31248 ft 483 kts
2026-04-29 14:05 25.06797 115.04300 31250 ft 483 kts
2026-04-29 14:05 25.13358 115.05904 31262 ft 482 kts
2026-04-29 14:06 25.19872 115.07498 31254 ft 482 kts
2026-04-29 14:06 25.26422 115.09102 31256 ft 483 kts
2026-04-29 14:07 25.32987 115.10305 31251 ft 468 kts 351°
2026-04-29 14:07 25.36183 115.09964 31267 ft 456 kts 340°
2026-04-29 14:07 25.39201 115.09046 31255 ft 444 kts 330°
2026-04-29 14:08 25.44737 115.06171 31256 ft 439 kts 326°
2026-04-29 14:08 25.50262 115.03265 31257 ft 440 kts 327°
2026-04-29 14:09 25.55792 115.00407 31277 ft 441 kts 327°
2026-04-29 14:09 25.61356 114.97547 31263 ft 441 kts 327°
2026-04-29 14:10 25.66909 114.94688 31270 ft 439 kts 327°
2026-04-29 14:10 25.72446 114.91833 31272 ft 438 kts 327°
2026-04-29 14:11 25.78399 114.90037 31286 ft 466 kts 354°
2026-04-29 14:11 25.81653 114.90638 31280 ft 484 kts 11°
2026-04-29 14:11 25.84739 114.92268 31278 ft 501 kts 29°
2026-04-29 14:12 25.87367 114.94880 31306 ft 509 kts 42°
2026-04-29 14:12 25.89750 114.97736 31277 ft 510 kts 44°
2026-04-29 14:12 25.94483 115.03626 31255 ft 510 kts 44°
2026-04-29 14:13 25.99240 115.09438 31262 ft 509 kts 43°
2026-04-29 14:13 26.04069 115.15219 31268 ft 509 kts 43°
2026-04-29 14:14 26.08866 115.20958 31276 ft 509 kts 43°
2026-04-29 14:14 26.13691 115.26740 31274 ft 510 kts 43°
2026-04-29 14:15 26.18521 115.32540 31278 ft 511 kts 43°
2026-04-29 14:15 26.23353 115.38351 31273 ft 512 kts 43°
2026-04-29 14:16 26.28201 115.44179 31306 ft 513 kts 43°
2026-04-29 14:16 26.33069 115.50010 31282 ft 514 kts 43°
2026-04-29 14:17 26.37944 115.55857 31262 ft 514 kts 43°
2026-04-29 14:17 26.42808 115.61702 31276 ft 514 kts 43°
2026-04-29 14:18 26.47636 115.67514 31258 ft 513 kts 43°
2026-04-29 14:18 26.52480 115.73353 31275 ft 512 kts 43°
2026-04-29 14:19 26.57294 115.79163 31272 ft 512 kts 43°
2026-04-29 14:19 26.62132 115.85010 31264 ft 511 kts 43°
2026-04-29 14:20 26.66926 115.90810 31265 ft 511 kts 43°
2026-04-29 14:20 26.70969 115.95707 31262 ft 511 kts 43°
2026-04-29 14:21 26.75776 116.01508 31276 ft 511 kts 43°
2026-04-29 14:21 26.81462 116.08315 31272 ft 511 kts 43°
2026-04-29 14:22 26.86288 116.14114 31276 ft 512 kts 43°
2026-04-29 14:22 26.90357 116.19012 31271 ft 513 kts 43°
2026-04-29 14:23 26.95214 116.24857 31288 ft 513 kts 43°
2026-04-29 14:23 27.00045 116.30681 31285 ft 513 kts 43°
2026-04-29 14:24 27.04904 116.36546 31272 ft 513 kts 43°
2026-04-29 14:24 27.09768 116.42424 31277 ft 514 kts 43°
2026-04-29 14:25 27.14631 116.48311 31272 ft 514 kts 43°
2026-04-29 14:25 27.19494 116.54206 31279 ft 515 kts 43°
2026-04-29 14:26 27.24404 116.60059 31265 ft 514 kts 42°
2026-04-29 14:26 27.29392 116.65823 31275 ft 514 kts 42°
2026-04-29 14:27 27.34338 116.71547 31283 ft 513 kts 42°
2026-04-29 14:28 27.41798 116.80259 31279 ft 514 kts 42°
2026-04-29 14:28 27.46717 116.86018 31278 ft 513 kts 42°
2026-04-29 14:29 27.51670 116.91819 31272 ft 513 kts 42°
2026-04-29 14:29 27.56655 116.97609 31273 ft 513 kts 42°
2026-04-29 14:30 27.61658 117.03376 31293 ft 514 kts 41°
2026-04-29 14:30 27.66630 117.09122 31270 ft 514 kts 42°
2026-04-29 14:31 27.71623 117.14909 31289 ft 513 kts 42°
2026-04-29 14:31 27.76588 117.20682 31288 ft 512 kts 42°
2026-04-29 14:32 27.81566 117.26471 31318 ft 513 kts 42°
2026-04-29 14:32 27.86514 117.32236 31292 ft 514 kts 42°
2026-04-29 14:33 27.91481 117.38029 31281 ft 513 kts 42°
2026-04-29 14:33 27.96442 117.43823 31290 ft 513 kts 42°
2026-04-29 14:34 28.01405 117.49627 31281 ft 512 kts 43°
2026-04-29 14:34 28.06361 117.55428 31288 ft 512 kts 42°
2026-04-29 14:35 28.11280 117.61193 31284 ft 512 kts 42°
2026-04-29 14:35 28.16223 117.66998 31291 ft 511 kts 43°
2026-04-29 14:36 28.21162 117.72807 31285 ft 511 kts 42°
2026-04-29 14:36 28.26095 117.78609 31294 ft 510 kts 42°
2026-04-29 14:37 28.31019 117.84414 31290 ft 510 kts 43°
2026-04-29 14:37 28.35915 117.90196 31288 ft 510 kts 43°
2026-04-29 14:38 28.40843 117.96022 31291 ft 511 kts 43°
2026-04-29 14:38 28.45677 118.01843 31308 ft 512 kts 44°
2026-04-29 14:39 28.50502 118.07802 31290 ft 512 kts 44°
2026-04-29 14:39 28.55333 118.13779 31288 ft 512 kts 44°
2026-04-29 14:40 28.60166 118.19745 31288 ft 513 kts 44°
2026-04-29 14:40 28.64977 118.25681 31310 ft 513 kts 44°
2026-04-29 14:41 28.69828 118.31674 31292 ft 514 kts 44°
2026-04-29 14:41 28.74677 118.37675 31270 ft 513 kts 44°
2026-04-29 14:42 28.79517 118.43675 31286 ft 513 kts 44°
2026-04-29 14:42 28.84317 118.49633 31291 ft 513 kts 44°
2026-04-29 14:43 28.89149 118.55638 31289 ft 514 kts 45°
2026-04-29 14:43 28.93985 118.61663 31296 ft 513 kts 45°
2026-04-29 14:44 28.98782 118.67645 31271 ft 513 kts 45°
2026-04-29 14:44 29.03603 118.73665 31281 ft 513 kts 45°
2026-04-29 14:45 29.08406 118.79685 31316 ft 513 kts 46°
2026-04-29 14:45 29.13216 118.85723 31292 ft 513 kts 44°
2026-04-29 14:46 29.18034 118.91752 31302 ft 513 kts 45°
2026-04-29 14:46 29.22824 118.97821 31299 ft 513 kts 45°
2026-04-29 14:47 29.27621 119.03866 31309 ft 513 kts 45°
2026-04-29 14:47 29.32424 119.09921 31306 ft 513 kts 45°
2026-04-29 14:48 29.36729 119.16396 31305 ft 516 kts 60°
2026-04-29 14:48 29.39600 119.23934 31305 ft 516 kts 69°
2026-04-29 14:49 29.42365 119.31542 31320 ft 517 kts 67°
2026-04-29 14:49 29.45237 119.39130 31313 ft 518 kts 67°
2026-04-29 14:50 29.48100 119.46718 31299 ft 518 kts 67°
2026-04-29 14:50 29.50941 119.54310 31274 ft 518 kts 67°
2026-04-29 14:51 29.54014 119.61720 31294 ft 517 kts 56°
2026-04-29 14:51 29.56169 119.64983 31300 ft 515 kts 45°
2026-04-29 14:51 29.58709 119.67863 31338 ft 511 kts 36°
2026-04-29 14:52 29.64526 119.72482 31304 ft 506 kts 28°
2026-04-29 14:52 29.70439 119.76896 31298 ft 506 kts 27°
2026-04-29 14:53 29.76321 119.81355 31312 ft 507 kts 30°
2026-04-29 14:53 29.82163 119.85920 31322 ft 508 kts 30°
2026-04-29 14:54 29.88006 119.90483 31302 ft 511 kts 30°
2026-04-29 14:54 29.90963 119.92785 31014 ft 513 kts 30°
2026-04-29 14:54 29.93915 119.95083 30687 ft 508 kts 30°
2026-04-29 14:54 29.96817 119.97352 30450 ft 499 kts 30°
2026-04-29 14:55 29.99677 119.99589 30145 ft 491 kts 30°
2026-04-29 14:55 30.02489 120.01774 29835 ft 483 kts 29°
2026-04-29 14:55 30.05258 120.03935 29505 ft 476 kts 29°
2026-04-29 14:55 30.07981 120.06062 29167 ft 471 kts 29°
2026-04-29 14:56 30.10707 120.08191 28874 ft 474 kts 29°
2026-04-29 14:56 30.13453 120.10335 28575 ft 479 kts 29°
2026-04-29 14:56 30.16220 120.12499 28267 ft 481 kts 30°
2026-04-29 14:56 30.18952 120.14641 27959 ft 481 kts 30°
2026-04-29 14:57 30.21717 120.16810 27658 ft 480 kts 30°
2026-04-29 14:57 30.24483 120.18981 27384 ft 480 kts 29°
2026-04-29 14:57 30.27244 120.21148 27093 ft 478 kts 29°
2026-04-29 14:57 30.30156 120.22913 26840 ft 464 kts 11°
2026-04-29 14:58 30.33273 120.23543 26842 ft 450 kts 354°
2026-04-29 14:58 30.36336 120.23238 26826 ft 435 kts 340°
2026-04-29 14:58 30.39190 120.22244 26804 ft 422 kts 328°
2026-04-29 14:58 30.41693 120.20578 26812 ft 409 kts 316°
2026-04-29 14:59 30.43913 120.18603 26807 ft 408 kts 314°
2026-04-29 14:59 30.46167 120.16574 26815 ft 410 kts 315°
2026-04-29 14:59 30.48441 120.14571 26803 ft 411 kts 315°
2026-04-29 14:59 30.50739 120.12592 26791 ft 411 kts 316°
2026-04-29 15:00 30.53048 120.10631 26806 ft 411 kts 316°
2026-04-29 15:00 30.55356 120.08678 26801 ft 410 kts 316°
2026-04-29 15:00 30.57657 120.06733 26796 ft 409 kts 316°
2026-04-29 15:00 30.59954 120.04787 26796 ft 408 kts 316°
2026-04-29 15:01 30.62237 120.02849 26796 ft 406 kts 316°
2026-04-29 15:01 30.64514 120.00912 26802 ft 405 kts 316°
2026-04-29 15:01 30.66786 119.98977 26792 ft 405 kts 316°
2026-04-29 15:01 30.69053 119.97043 26801 ft 404 kts 316°
2026-04-29 15:02 30.71322 119.95106 26796 ft 405 kts 316°
2026-04-29 15:02 30.73565 119.93189 26804 ft 405 kts 316°
2026-04-29 15:02 30.75833 119.91250 26800 ft 405 kts 316°
2026-04-29 15:02 30.78102 119.89310 26815 ft 405 kts 316°
2026-04-29 15:03 30.80372 119.87368 26812 ft 405 kts 316°
2026-04-29 15:03 30.82643 119.85424 26805 ft 405 kts 316°
2026-04-29 15:03 30.84905 119.83487 26798 ft 401 kts 316°
2026-04-29 15:03 30.87126 119.81592 26706 ft 388 kts 315°
2026-04-29 15:04 30.89270 119.79762 26472 ft 379 kts 315°
2026-04-29 15:04 30.91384 119.77950 26004 ft 376 kts 315°
2026-04-29 15:04 30.93490 119.76138 25488 ft 376 kts 315°
2026-04-29 15:04 30.95589 119.74329 25028 ft 374 kts 315°
2026-04-29 15:05 30.97675 119.72535 24613 ft 370 kts 315°
2026-04-29 15:05 30.99037 119.71364 24139 ft 367 kts 315°
2026-04-29 15:05 31.01801 119.68981 22429 ft 380 kts 316°
2026-04-29 15:05 31.03942 119.67123 21114 ft 387 kts 317°
2026-04-29 15:06 31.06122 119.65238 19895 ft 391 kts 318°
2026-04-29 15:06 31.08321 119.63339 18843 ft 392 kts 319°
2026-04-29 15:06 31.10510 119.61452 17840 ft 389 kts 320°
2026-04-29 15:06 31.12672 119.59592 16950 ft 382 kts 320°
2026-04-29 15:07 31.14766 119.57789 16095 ft 375 kts 320°
2026-04-29 15:07 31.16854 119.55986 15195 ft 371 kts 321°
2026-04-29 15:07 31.18920 119.54203 14337 ft 367 kts 321°
2026-04-29 15:07 31.20955 119.52443 13449 ft 362 kts 322°
2026-04-29 15:08 31.22964 119.50704 12719 ft 353 kts 322°
2026-04-29 15:08 31.24896 119.49034 12248 ft 338 kts 322°
2026-04-29 15:08 31.26138 119.47958 11918 ft 331 kts 322°
2026-04-29 15:08 31.28536 119.45881 11460 ft 319 kts 322°
2026-04-29 15:09 31.30328 119.44327 10930 ft 321 kts 322°
2026-04-29 15:09 31.31539 119.43276 10642 ft 320 kts 323°
2026-04-29 15:09 31.33866 119.41256 10392 ft 309 kts 323°
2026-04-29 15:09 31.34998 119.40273 10304 ft 302 kts 323°
2026-04-29 15:10 31.37206 119.38355 10124 ft 289 kts 323°
2026-04-29 15:10 31.38798 119.36971 9988 ft 281 kts 322°
2026-04-29 15:10 31.39824 119.36078 9959 ft 273 kts 322°
2026-04-29 15:10 31.41345 119.34754 9545 ft 275 kts 323°
2026-04-29 15:11 31.42873 119.33425 9243 ft 273 kts 323°
2026-04-29 15:11 31.44392 119.32102 8937 ft 272 kts 323°
2026-04-29 15:11 31.45910 119.30780 8623 ft 270 kts 324°
2026-04-29 15:11 31.47414 119.29469 8332 ft 269 kts 324°
2026-04-29 15:12 31.48911 119.28164 8044 ft 267 kts 324°
2026-04-29 15:12 31.50398 119.26867 7758 ft 266 kts 325°
2026-04-29 15:12 31.51879 119.25576 7481 ft 264 kts 325°
2026-04-29 15:12 31.53349 119.24292 7208 ft 263 kts 326°
2026-04-29 15:13 31.54813 119.23014 6940 ft 261 kts 326°
2026-04-29 15:13 31.56265 119.21746 6690 ft 259 kts 326°
2026-04-29 15:13 31.57718 119.20503 6420 ft 256 kts 332°
2026-04-29 15:13 31.59365 119.19888 6202 ft 245 kts 356°
2026-04-29 15:14 31.61036 119.19676 5935 ft 244 kts 356°
2026-04-29 15:14 31.62719 119.19461 5677 ft 242 kts 356°
2026-04-29 15:14 31.64385 119.19245 5420 ft 240 kts 356°
2026-04-29 15:14 31.66045 119.19028 5164 ft 239 kts 355°
2026-04-29 15:15 31.67694 119.18812 4901 ft 238 kts 355°
2026-04-29 15:15 31.69331 119.18596 4638 ft 236 kts 355°
2026-04-29 15:15 31.70956 119.18380 4400 ft 235 kts 355°
2026-04-29 15:15 31.72557 119.18167 4282 ft 228 kts 355°
2026-04-29 15:16 31.74105 119.17960 4174 ft 220 kts 355°
2026-04-29 15:16 31.75608 119.17760 4074 ft 215 kts 355°
2026-04-29 15:16 31.77095 119.17561 4002 ft 216 kts 355°
2026-04-29 15:16 31.78581 119.17351 3910 ft 217 kts 351°
2026-04-29 15:17 31.79936 119.16632 3765 ft 215 kts 327°
2026-04-29 15:17 31.81189 119.15669 3650 ft 213 kts 329°
2026-04-29 15:17 31.82418 119.14765 3544 ft 203 kts 330°
2026-04-29 15:17 31.83587 119.13910 3408 ft 192 kts 330°
2026-04-29 15:18 31.84679 119.13052 3288 ft 189 kts 318°
2026-04-29 15:18 31.85248 119.11685 3148 ft 191 kts 274°
2026-04-29 15:18 31.84889 119.10233 3041 ft 184 kts 237°
2026-04-29 15:18 31.84205 119.08966 3014 ft 183 kts 239°
2026-04-29 15:19 31.83544 119.07711 3008 ft 182 kts 239°
2026-04-29 15:19 31.82883 119.06442 3000 ft 182 kts 239°
2026-04-29 15:19 31.82217 119.05172 3021 ft 183 kts 239°
2026-04-29 15:19 31.81540 119.03899 3016 ft 183 kts 238°
2026-04-29 15:20 31.80859 119.02625 2959 ft 185 kts 238°
2026-04-29 15:20 31.80166 119.01330 2736 ft 187 kts 238°
2026-04-29 15:20 31.79477 119.00042 2487 ft 184 kts 238°
2026-04-29 15:20 31.78810 118.98794 2226 ft 176 kts 238°
2026-04-29 15:21 31.78184 118.97622 2001 ft 167 kts 239°
2026-04-29 15:21 31.77578 118.96488 1784 ft 161 kts 238°
2026-04-29 15:21 31.76991 118.95389 1585 ft 154 kts 238°
2026-04-29 15:21 31.76428 118.94334 1355 ft 151 kts 238°
2026-04-29 15:22 31.75877 118.93302 1141 ft 146 kts 237°
2026-04-29 15:22 31.75345 118.92306 952 ft 144 kts 238°
2026-04-29 15:22 31.74827 118.91333 822 ft 137 kts 238°
2026-04-29 15:22 31.74326 118.90374 626 ft 133 kts 237°
2026-04-29 15:23 31.73818 118.89436 416 ft 141 kts 239°
2026-04-29 15:23 31.73303 118.88455 202 ft 143 kts 237°
2026-04-29 15:23 31.72784 118.87490 56 ft 132 kts 238°
2026-04-29 15:23 31.72368 118.86713 54 ft 91 kts 238°
2026-04-29 15:24 31.72139 118.86275 54 ft 37 kts 248°
2026-04-29 15:24 31.72101 118.86021 53 ft 14 kts 265°
2026-04-29 15:24 31.72120 118.85963 54 ft 8 kts 324°
2026-04-29 15:24 31.72169 118.85930 56 ft 8 kts 329°
2026-04-29 15:25 31.72227 118.85911 56 ft 10 kts 17°
2026-04-29 15:25 31.72268 118.85973 55 ft 10 kts 58°
2026-04-29 15:25 31.72312 118.86055 53 ft 15 kts 57°
2026-04-29 15:25 31.72371 118.86166 56 ft 17 kts 58°
2026-04-29 15:26 31.72432 118.86279 56 ft 16 kts 58°
2026-04-29 15:26 31.72489 118.86387 56 ft 15 kts 58°
2026-04-29 15:26 31.72545 118.86489 54 ft 15 kts 58°
2026-04-29 15:26 31.72601 118.86585 54 ft 14 kts 36°
2026-04-29 15:27 31.72664 118.86574 56 ft 9 kts 339°
2026-04-29 15:27 31.72709 118.86612 57 ft 9 kts 60°
2026-04-29 15:27 31.72741 118.86676 55 ft 9 kts 58°
2026-04-29 15:27 31.72773 118.86736 54 ft 8 kts 57°
2026-04-29 15:28 31.72814 118.86777 51 ft 8 kts
2026-04-29 15:28 31.72845 118.86763 57 ft 5 kts 328°
2026-04-29 15:28 31.72873 118.86742 50 ft 0 kts 327°